DMSP 5D-2 F13 DEB, 40416

Orbit data source: Space-Track

DMSP 5D-2 F13 DEB, 40416 is space debris in SSO originally from a launch on Fri, 24 Mar 1995 UTC launched from the Air Force Western Test Range (AFWTR). Debris objects in space refer to the collection of defunct objects orbiting the Earth. Examples of debris include non-operational satellites, rocket bodies, and fragments generated from explosions, collisions, or faulty payload assembly.

Loading next visibility...
Identifier
40416, 1995-015AD
Orbit
SSO
Country
Flag of USUS
Related business
Manufacturer
Unknown
Mission
Spacecraft
Bus & Motor
Unknown
Mass
Unknown
Launch date (UTC)
1995-03-24 (30 years ago)
Launch vehicle
Unknown
Launch site
Air Force Western Test Range (AFWTR)
Object type
Payload
Rocket body
Debris
Shape & HBR
Unknown
Radar Cross Section
Small (<0.1 m²)

Expand to show TLE details & history
Last TLE update: 22 hours ago

TLE from 22 hours ago
0 DMSP 5D-2 F13 DEB
1 40416U 95015AD  25260.53185651  .00001714  00000-0  72614-3 0  9990
2 40416  98.7632 281.3971 0005829 155.1031 205.0431 14.26754254546856
Epoch: 2025-09-17T12:45Z
TLE epoch observation values (Epoch: 2025-09-17T12:45:52.402Z)
Latitude
-0.00004°
Longitude
93.2223°
Altitude
809.316 km
Speed
7.447 km/s
True Right ascension
18h 45m 35s
True Declination
0° 00' 00"
Sunlit
Object was in daylight at epoch
Visualization orbit readout
Latitude
Unknown
Longitude
Unknown
Altitude
Unknown
Speed
Unknown
Apparent Right ascension
Unknown
Apparent Declination
Unknown
Sunlit
N/A
Visualization observer readout
Local Sidereal Time
03:38:16
Azimuth
Unknown
Elevation
Unknown
Doppler factor
Unknown
Orbital elements
Apogee altitude
803.937 km
Perigee altitude
795.569 km
Semi-major axis
7,177.89 km
Eccentricity
0.00058
Inclination
98.7632°
RAAN
281.3971°
Arg. of periapsis
155.1031°
True anomaly
205.01484°
Mean anomaly
205.0431°
Eccentric anomaly
205.02897°
Mean motion
3.56901 °/min
Orbital period
100.87 mins
BSTAR
0.00072614
Loading maneuver chart data...
Computing Atmospheric mass density...

Documentation

Showing up to 5 results
|